Voltar ao catálogo

CENTISPACE-1 S9

AtivoNavegaçãoLEO
NORAD 62578·PAYLOAD·🇨🇳 China

Lançado Jan 13, 2025 de Yellow Sea Launch Area

Loading…

Próximas Passagens (próximas 24 horas)

TLE

AtualizadoSource: Space-Track

Época: Sep 14, 2026, 14:17 UTC

1 62578U 25007D   26257.59558238 -.00000054  00000-0  82007-4 0  9990
2 62578  54.9844 339.6382 0009449 246.6140 113.3823 13.80622079 87067

Acompanhe CENTISPACE-1 S9 em tempo real com AllMySat

Download on the App Store